�搅�E���B���j�^�v������
Date,Time,�搅(cps),���B(cps),���J
2024/03/06,00:00,5.6,5.2,�L
2024/03/06,00:10,5.9,5.4,�L
2024/03/06,00:20,5.7,5.4,�L
2024/03/06,00:30,6.0,5.4,�L
2024/03/06,00:40,5.9,5.5,�L
2024/03/06,00:50,5.9,5.5,�L
2024/03/06,01:00,5.7,5.3,�L
2024/03/06,01:10,5.8,5.4,�L
2024/03/06,01:20,5.8,5.4,�L
2024/03/06,01:30,5.9,5.3,�L
2024/03/06,01:40,5.9,5.2,�L
2024/03/06,01:50,6.1,5.1,�L
2024/03/06,02:00,6.0,5.3,�L
2024/03/06,02:10,6.2,5.3,�L
2024/03/06,02:20,6.1,5.4,�L
2024/03/06,02:30,6.2,5.5,�L
2024/03/06,02:40,6.3,5.3,�L
2024/03/06,02:50,6.4,5.5,�L
2024/03/06,03:00,6.1,5.6,�L
2024/03/06,03:10,6.0,5.6,�L
2024/03/06,03:20,6.1,5.6,�L
2024/03/06,03:30,5.9,5.6,�L
2024/03/06,03:40,6.1,5.7,�L
2024/03/06,03:50,6.0,5.6,�L
2024/03/06,04:00,6.2,5.7,�L
2024/03/06,04:10,6.3,5.7,�L
2024/03/06,04:20,6.1,5.7,�L
2024/03/06,04:30,6.0,5.5,�L
2024/03/06,04:40,6.1,5.5,�L
2024/03/06,04:50,6.0,5.5,�L
2024/03/06,05:00,5.8,5.5,�L
2024/03/06,05:10,5.9,5.5,�L
2024/03/06,05:20,5.7,5.3,�L
2024/03/06,05:30,5.7,5.2,�L
2024/03/06,05:40,5.6,5.2,�L
2024/03/06,05:50,5.6,5.2,�L
2024/03/06,06:00,5.4,5.2,�L
2024/03/06,06:10,5.5,5.2,�L
2024/03/06,06:20,5.4,5.2,�L
2024/03/06,06:30,5.2,5.2,�L
2024/03/06,06:40,5.0,5.1,�L
2024/03/06,06:50,5.3,5.1,�L
2024/03/06,07:00,5.2,5.1,�L
2024/03/06,07:10,5.0,5.0,�L
2024/03/06,07:20,5.1,5.0,�L
2024/03/06,07:30,4.9,4.9,�L
2024/03/06,07:40,5.1,4.9,�L
2024/03/06,07:50,5.1,5.1,�L
2024/03/06,08:00,5.1,5.0,�L
2024/03/06,08:10,5.1,5.0,�L
2024/03/06,08:20,5.2,4.9,�L
2024/03/06,08:30,5.0,4.8,�L
2024/03/06,08:40,5.1,4.9,�L
2024/03/06,08:50,5.0,4.9,�L
2024/03/06,09:00,5.0,5.0,�L
2024/03/06,09:10,4.9,4.8,�L
2024/03/06,09:20,4.8,4.7,�L
2024/03/06,09:30,4.9,4.8,�L
2024/03/06,09:40,4.7,4.8,�L
2024/03/06,09:50,4.8,4.8,�L
2024/03/06,10:00,4.7,4.9,�L
2024/03/06,10:10,4.8,4.8,�L
2024/03/06,10:20,4.8,4.7,��
2024/03/06,10:30,4.7,4.8,��
2024/03/06,10:40,4.9,4.8,��
2024/03/06,10:50,4.8,4.6,�L
2024/03/06,11:00,4.7,4.7,�L
2024/03/06,11:10,4.7,4.7,�L
2024/03/06,11:20,4.7,4.7,�L
2024/03/06,11:30,4.6,4.7,�L
2024/03/06,11:40,4.7,4.7,�L
2024/03/06,11:50,4.6,4.6,�L
2024/03/06,12:00,4.7,4.5,�L
2024/03/06,12:10,4.7,4.5,�L
2024/03/06,12:20,4.6,4.7,�L
2024/03/06,12:30,4.6,4.7,�L
2024/03/06,12:40,4.7,4.6,�L
2024/03/06,12:50,4.7,4.6,�L
2024/03/06,13:00,4.8,4.7,�L
2024/03/06,13:10,4.6,4.7,�L
2024/03/06,13:20,4.9,4.8,�L
2024/03/06,13:30,5.0,4.8,�L
2024/03/06,13:40,5.2,4.8,�L
2024/03/06,13:50,5.1,4.8,�L
2024/03/06,14:00,5.2,4.8,�L
2024/03/06,14:10,5.1,4.8,�L
2024/03/06,14:20,5.3,4.9,�L
2024/03/06,14:30,5.1,4.8,�L
2024/03/06,14:40,5.2,4.8,�L
2024/03/06,14:50,5.0,4.9,�L
2024/03/06,15:00,4.9,4.8,�L
2024/03/06,15:10,5.0,4.6,�L
2024/03/06,15:20,4.9,4.6,�L
2024/03/06,15:30,4.8,4.8,�L
2024/03/06,15:40,5.1,4.7,�L
2024/03/06,15:50,5.2,4.7,�L
2024/03/06,16:00,5.4,4.9,�L
2024/03/06,16:10,5.4,4.9,�L
2024/03/06,16:20,5.3,4.8,�L
2024/03/06,16:30,5.0,4.9,�L
2024/03/06,16:40,5.0,4.9,�L
2024/03/06,16:50,4.8,4.8,�L
2024/03/06,17:00,5.0,4.8,��
2024/03/06,17:10,5.0,4.7,�L
2024/03/06,17:20,4.9,4.7,��
2024/03/06,17:30,4.8,4.6,�L
2024/03/06,17:40,4.7,4.6,�L
2024/03/06,17:50,4.7,4.7,�L
2024/03/06,18:00,4.7,4.7,�L
2024/03/06,18:10,4.7,4.6,�L
2024/03/06,18:20,4.8,4.5,�L
2024/03/06,18:30,4.8,4.6,��
2024/03/06,18:40,5.0,4.7,��
2024/03/06,18:50,4.7,4.6,��
2024/03/06,19:00,4.8,4.7,��
2024/03/06,19:10,4.7,4.6,��
2024/03/06,19:20,4.7,4.7,��
2024/03/06,19:30,4.8,4.5,��
2024/03/06,19:40,4.6,4.5,��
2024/03/06,19:50,4.7,4.6,��
2024/03/06,20:00,4.7,4.6,��
2024/03/06,20:10,4.6,4.7,��
2024/03/06,20:20,4.8,4.5,��
2024/03/06,20:30,4.6,4.5,��
2024/03/06,20:40,4.6,4.6,��
2024/03/06,20:50,4.8,4.6,��
2024/03/06,21:00,4.7,4.6,��
2024/03/06,21:10,4.6,4.6,��
2024/03/06,21:20,4.8,4.6,��
2024/03/06,21:30,4.8,4.5,��
2024/03/06,21:40,4.7,4.6,��
2024/03/06,21:50,4.7,4.5,��
2024/03/06,22:00,4.7,4.4,��
2024/03/06,22:10,4.7,4.6,��
2024/03/06,22:20,4.7,4.6,��
2024/03/06,22:30,4.7,4.4,��
2024/03/06,22:40,5.0,4.6,��
2024/03/06,22:50,4.7,4.5,��
2024/03/06,23:00,4.7,4.5,��
2024/03/06,23:10,4.8,4.6,��
2024/03/06,23:20,4.6,4.8,��
2024/03/06,23:30,4.7,4.6,��
2024/03/06,23:40,4.7,4.5,��
2024/03/06,23:50,4.6,4.5,��
